This is the latest recevied weather packets stored in our database for station/object KD8FRE. If no packets are shown the sender has not sent any weather packets the latest 10 day(s).
| Time | Temp. | Humidity | Pressure | Rain* | Wind** | Luminosity | Snow |
|---|---|---|---|---|---|---|---|
| 1777404716 | 14.44° C | 71% | 1012.2 hPa | 0 mm | - | 211 W/m² | - |
| 1777404412 | 14.44° C | 71% | 1012.4 hPa | 0 mm | - | 248 W/m² | - |
| 1777404109 | 14.44° C | 72% | 1012.4 hPa | 0 mm | - | 239 W/m² | - |
| 1777403805 | 13.89° C | 73% | 1012.3 hPa | 0 mm | - | 269 W/m² | - |
| 1777403503 | 13.89° C | 71% | 1012.2 hPa | 0 mm | - | 247 W/m² | - |
| 1777403198 | 13.89° C | 72% | 1012.2 hPa | 0 mm | - | 259 W/m² | - |
| 1777402894 | 13.89° C | 72% | 1012.3 hPa | 0 mm | - | 253 W/m² | - |
| 1777402590 | 13.89° C | 73% | 1012.3 hPa | 0 mm | - | 231 W/m² | - |
| 1777402289 | 13.89° C | 73% | 1012.3 hPa | 0 mm | - | 578 W/m² | - |
| 1777401988 | 13.33° C | 73% | 1012.3 hPa | 0 mm | - | 196 W/m² | - |
| 1777401686 | 13.33° C | 75% | 1012.4 hPa | 0 mm | - | 198 W/m² | - |
| 1777401384 | 13.33° C | 74% | 1012.3 hPa | 0 mm | - | 210 W/m² | - |
| 1777401080 | 13.33° C | 74% | 1012.2 hPa | 0 mm | - | 240 W/m² | - |
| 1777400775 | 13.33° C | 74% | 1012.3 hPa | 0 mm | - | 244 W/m² | - |
| 1777400473 | 12.78° C | 75% | 1012.1 hPa | 0 mm | - | 207 W/m² | - |
| 1777400168 | 13.33° C | 74% | 1011.9 hPa | 0 mm | - | 146 W/m² | - |
| 1777399865 | 13.33° C | 73% | 1011.8 hPa | 0 mm | - | 174 W/m² | - |
| 1777399562 | 13.33° C | 73% | 1011.7 hPa | 0 mm | - | 182 W/m² | - |
| 1777399259 | 13.33° C | 74% | 1011.7 hPa | 0 mm | - | 221 W/m² | - |
| 1777398957 | 12.78° C | 77% | 1011.8 hPa | 0 mm | - | 202 W/m² | - |
| 1777398654 | 13.33° C | 75% | 1011.7 hPa | 0 mm | - | 176 W/m² | - |
| 1777398350 | 12.78° C | 77% | 1011.6 hPa | 0 mm | - | 179 W/m² | - |
| 1777398047 | 12.78° C | 76% | 1011.7 hPa | 0 mm | - | 189 W/m² | - |
| 1777397744 | 12.78° C | 77% | 1011.6 hPa | 0 mm | - | 174 W/m² | - |
| 1777397440 | 12.78° C | 78% | 1011.5 hPa | 0 mm | - | 151 W/m² | - |
* Rain latest hour (hover to see other rain measurements)
** Current wind speed in m/s (hover to see current wind gust speed)